Wind_Speed
10 10 10 10 10 11 11 10 10 10 10 11 11 11 10 10 10 9 9 8 7 6 5 5 7 7 8 8 8 8 8 8 7 5 5 4 5 4 5 6 6 5 5 4 3 3 2 1 1 1 1 2 2 2 2 3 3 3 4 4 4 4 5 6 6 6 7 7 8 8 8 8 8 9 9 9 10 10 10 10 10 9 7 7 7
9 9 9 9 9 9 10 10 10 10 11 11 11 12 12 11 11 10 9 9 8 7 6 5 6 7 8 8 7 8 8 8 7 6 5 5 5 4 4 5 6 6 5 4 3 2 1 0 1 1 2 2 2 2 2 3 3 4 4 4 4 5 5 6 6 7 7 8 8 9 8 9 9 9 9 10 10 10 10 10 9 8 7 7 6
9 8 8 8 8 8 9 9 9 10 11 11 11 12 12 12 12 11 9 8 7 7 6 6 6 7 7 8 7 7 8 9 8 7 7 6 5 5 4 5 5 5 5 5 4 3 3 2 2 2 2 2 2 3 3 3 3 4 4 5 5 5 6 6 7 7 8 8 9 9 9 9 10 10 10 10 10 10 9 9 8 7 6 6 5
9 7 6 7 7 8 8 8 9 9 10 10 11 12 12 12 12 11 9 8 6 5 4 4 5 7 7 8 7 7 8 9 9 9 9 7 6 6 6 5 5 5 5 5 4 4 4 3 3 3 3 3 3 3 3 3 4 4 5 6 6 6 6 7 8 8 8 9 9 9 10 10 10 10 10 10 10 9 9 8 7 6 6 5 4
8 7 6 6 6 7 7 8 8 9 9 10 11 11 10 11 12 11 10 8 6 5 3 3 3 5 7 8 8 7 8 8 8 9 9 8 7 6 6 6 5 5 5 5 4 4 3 3 3 3 3 3 3 3 3 3 4 5 6 7 7 7 7 8 8 9 9 9 9 10 10 10 10 10 10 10 9 9 8 7 5 5 5 5 3
8 7 6 5 5 6 7 8 8 8 8 9 10 10 10 11 11 11 11 9 7 5 3 3 2 4 6 7 7 7 7 7 7 8 9 9 8 6 6 5 5 5 5 4 4 4 3 4 4 4 4 4 3 3 4 4 5 6 7 7 8 8 8 9 9 9 10 10 10 10 10 10 10 10 9 9 9 9 8 6 5 4 5 4 3
7 7 5 5 5 6 7 8 8 8 8 9 10 9 10 11 10 11 11 9 7 5 3 2 2 3 6 6 6 6 6 6 6 7 8 8 8 7 7 6 5 5 5 5 5 5 5 4 4 4 5 5 5 5 5 5 6 6 7 8 8 9 9 10 10 9 9 9 10 9 9 9 9 9 8 8 8 8 7 5 4 4 4 3 3
7 6 5 5 6 7 7 8 8 9 8 9 9 10 10 10 10 11 11 10 8 6 4 2 2 3 4 4 4 5 6 5 4 5 6 7 7 8 8 7 6 4 4 5 5 6 6 5 5 5 5 5 6 6 6 6 6 6 7 8 9 9 9 10 9 9 9 9 9 9 8 8 8 7 7 7 8 7 6 5 4 3 4 4 4
6 5 6 6 6 7 8 8 8 8 9 9 9 10 10 10 10 12 12 11 9 7 4 2 3 3 3 3 2 3 4 4 2 2 4 5 6 7 8 8 7 5 4 5 5 5 5 5 5 5 5 5 5 6 6 6 6 6 7 7 8 8 9 9 9 9 9 8 8 8 8 7 7 6 6 6 6 6 5 4 4 4 4 4 5
5 5 6 6 6 7 8 8 8 8 9 9 9 10 10 11 11 12 12 11 10 8 5 3 3 3 1 1 2 3 3 3 1 2 3 3 4 5 7 8 8 7 6 6 5 4 4 4 5 5 5 5 5 5 5 5 5 5 6 6 7 8 9 9 9 9 9 8 8 8 7 7 7 6 6 6 6 5 5 4 4 4 5 5 6
5 5 7 7 7 7 7 7 8 8 9 10 9 10 11 11 12 12 12 11 10 10 7 5 5 3 1 0 1 2 2 1 1 3 3 2 2 3 5 6 7 7 7 6 5 4 4 4 5 5 5 5 5 5 5 5 5 5 6 6 7 7 8 8 9 9 8 8 8 8 8 7 7 6 6 5 5 5 5 5 5 5 5 6 7
6 7 7 7 7 7 7 7 8 8 9 9 8 9 11 12 12 13 12 10 10 11 9 7 7 5 4 2 1 2 2 1 1 2 2 3 3 3 4 5 5 6 7 7 5 4 3 3 4 3 4 5 5 5 5 5 5 5 5 6 6 7 7 8 8 8 8 8 8 8 7 7 7 6 6 5 5 5 5 5 5 6 6 7 8
7 8 8 7 7 7 7 7 8 8 8 8 8 9 11 13 14 13 12 10 10 11 9 8 8 6 4 3 2 2 2 1 1 1 1 3 3 2 3 4 4 5 6 7 6 5 4 3 3 3 4 4 5 5 6 6 5 5 5 5 6 6 6 7 7 7 8 8 7 7 7 7 7 6 6 6 6 5 5 6 6 6 7 8 9
9 9 9 8 7 7 7 8 8 9 9 9 9 11 13 14 14 13 11 10 9 9 7 8 9 8 5 3 3 4 3 3 2 1 2 1 1 2 3 3 4 4 5 6 6 5 5 5 4 3 4 5 5 6 6 6 5 4 4 4 5 5 6 6 6 7 7 7 7 7 7 7 7 7 7 6 6 7 7 7 7 8 8 9 10
10 10 9 8 7 7 8 9 8 8 8 8 9 12 14 15 15 13 11 10 9 7 6 6 8 8 6 3 3 4 4 5 5 4 3 2 1 2 3 3 4 4 4 5 6 5 5 6 5 4 4 4 5 6 6 6 5 4 4 4 5 5 5 5 5 6 6 7 7 7 8 8 8 8 8 8 8 8 8 8 8 9 9 10 11
11 11 10 9 8 8 9 9 9 8 9 8 9 11 14 16 15 14 12 10 9 8 7 7 7 8 7 5 3 4 5 4 4 5 5 4 2 2 3 3 4 5 5 5 5 5 4 5 6 5 4 4 5 5 6 6 6 5 5 5 5 5 5 5 5 6 7 7 8 8 8 8 9 9 9 9 9 9 10 9 9 10 11 11 12
12 11 11 9 9 10 10 9 9 9 9 9 9 11 13 15 16 15 14 12 11 9 8 8 9 8 7 5 3 4 5 4 3 4 5 5 3 3 3 4 5 6 7 6 5 5 5 5 5 6 5 4 5 5 6 7 7 6 6 6 6 6 6 6 6 7 7 8 9 9 10 10 10 10 10 11 11 11 11 11 11 12 12 13 13
12 12 11 10 11 10 10 10 9 9 9 10 10 11 13 14 15 16 15 13 11 10 9 9 9 9 7 6 4 5 4 3 3 3 3 4 4 4 5 5 6 8 8 7 7 7 6 6 6 6 5 5 5 5 6 7 7 7 7 7 7 7 7 7 7 8 9 9 10 11 11 12 12 12 12 12 13 13 13 13 13 13 13 13 14
13 12 11 11 12 11 10 10 10 10 10 10 10 11 12 13 14 15 15 13 11 11 10 9 9 9 7 7 6 5 4 3 2 2 3 3 4 4 5 6 8 9 9 7 7 6 6 6 6 6 5 5 5 6 6 6 7 7 8 8 9 8 8 8 9 9 10 10 11 12 12 13 14 14 14 15 15 15 15 15 15 15 15 15 15
14 13 12 12 12 12 11 11 10 10 10 10 10 10 11 12 13 14 15 13 12 12 11 10 9 8 8 7 6 4 3 3 2 3 4 4 4 4 5 7 8 8 7 5 5 5 5 5 5 5 4 4 5 6 6 7 7 8 9 9 10 10 10 10 10 11 11 12 13 14 14 15 15 15 15 16 16 16 16 16 16 16 16 17 17
15 14 14 13 12 12 12 12 11 11 10 10 10 11 11 12 12 12 13 12 12 13 12 11 9 7 9 9 6 5 4 3 3 3 2 3 3 4 6 7 6 4 3 3 3 4 3 3 4 4 4 4 5 6 7 8 9 9 10 11 12 13 13 13 13 13 14 14 15 15 15 15 16 16 15 16 16 16 16 16 16 16 16 17 17
16 16 15 14 13 13 13 12 11 11 11 11 11 11 10 10 10 10 10 10 11 13 12 11 9 8 10 10 7 6 4 3 3 2 1 1 2 3 5 6 5 4 4 4 4 3 3 3 4 4 4 5 5 6 7 8 9 10 11 13 14 15 15 15 15 15 15 15 15 15 15 15 16 16 16 16 16 16 16 16 17 17 17 17 17
18 17 16 15 14 14 14 13 12 12 12 12 11 11 10 9 8 8 9 10 11 11 11 10 10 10 11 11 9 7 5 3 3 2 2 2 3 4 5 5 5 5 6 6 5 5 5 5 5 5 7 7 7 8 8 8 9 10 12 14 15 15 15 15 15 15 16 16 16 16 16 16 16 17 17 16 16 16 17 17 17 17 17 18 19
19 18 17 16 16 16 16 15 14 13 12 12 12 11 10 9 8 8 8 9 10 10 11 11 11 11 11 11 10 8 6 5 4 3 3 4 5 5 4 4 5 5 7 7 7 7 7 6 6 7 8 8 9 9 9 8 9 9 11 13 15 16 16 16 16 16 16 16 17 17 17 17 17 17 17 16 16 16 17 17 17 18 18 20 21
21 20 18 17 17 16 16 15 14 14 12 12 13 13 12 11 9 8 7 8 9 10 10 11 11 10 9 10 9 8 8 6 6 6 6 5 5 5 4 6 7 7 7 8 9 8 7 5 5 6 7 8 9 9 9 9 8 8 10 13 14 16 17 17 17 16 16 16 16 16 16 17 17 17 16 15 16 16 16 17 18 19 20 20 22
22 21 19 18 17 17 16 15 14 14 13 13 13 13 13 12 11 9 8 7 8 9 10 11 11 9 9 9 9 9 8 6 6 7 7 6 5 4 5 6 7 7 8 9 10 10 7 6 6 6 7 9 10 10 10 9 9 9 11 13 15 16 17 17 17 17 17 17 16 16 15 15 15 14 14 14 15 15 16 18 19 20 20 20 21
22 20 19 19 18 16 15 15 14 14 14 14 13 13 14 13 12 11 10 8 9 10 10 11 11 10 11 11 11 11 9 6 6 6 6 6 5 5 5 6 8 9 9 9 9 9 8 8 8 8 9 11 11 11 11 11 12 12 13 16 18 19 19 18 17 18 18 17 16 15 13 13 12 13 13 13 14 15 16 18 19 20 20 20 21
22 20 20 20 19 17 16 15 15 14 14 14 14 13 13 14 13 12 12 11 10 11 11 11 10 10 12 13 13 12 10 7 7 6 5 6 6 7 6 7 9 11 11 9 7 7 8 8 8 9 10 11 12 13 14 15 16 16 17 19 20 20 19 18 18 18 17 15 13 12 12 12 13 13 13 14 14 15 17 18 20 20 21 22 23
23 21 20 20 19 18 17 16 16 16 15 14 14 14 14 14 13 13 12 11 11 11 11 12 11 10 12 14 15 14 12 10 9 8 7 7 8 8 8 8 9 10 11 10 7 6 7 8 8 9 10 12 14 15 16 18 18 18 19 19 18 18 17 16 16 15 14 12 11 11 12 12 13 13 13 14 15 16 17 18 20 21 22 23 23
24 22 20 20 20 19 19 18 17 17 16 16 15 15 15 15 14 13 12 12 12 11 11 11 12 11 12 14 16 15 14 13 12 11 11 10 10 10 10 10 10 9 9 9 7 5 5 6 8 9 10 11 13 15 16 17 17 17 17 16 16 16 15 14 13 12 11 11 10 12 13 13 14 14 14 15 16 17 18 19 20 20 21 21 20
24 23 22 21 21 20 19 19 18 18 18 17 16 16 17 16 15 14 13 13 13 12 12 12 12 13 13 13 15 15 15 15 14 14 14 14 14 13 12 12 11 8 6 8 8 5 4 5 6 8 10 11 12 13 13 13 14 14 14 15 15 14 13 11 10 10 10 10 11 12 13 14 15 16 15 15 16 18 19 19 18 18 18 17 17
25 24 23 22 22 21 20 19 18 18 18 18 18 18 18 18 17 16 15 15 15 14 13 13 13 13 14 14 14 14 14 15 16 16 16 16 16 16 15 15 13 10 7 8 10 7 4 6 6 6 9 11 10 11 11 11 11 13 13 14 13 12 11 10 10 10 11 11 12 13 15 17 17 16 15 16 17 18 17 15 15 15 16 16 16
26 25 24 23 23 22 20 19 18 17 17 17 18 18 19 19 18 18 18 18 18 17 16 15 15 14 15 15 15 15 14 15 16 16 16 17 17 17 17 16 14 11 10 10 12 10 6 5 7 6 7 9 9 9 11 11 11 13 13 13 12 11 10 10 11 12 13 14 14 16 18 18 17 16 16 16 15 14 13 12 13 15 16 16 18
27 26 25 25 24 23 22 21 20 19 19 18 18 19 19 19 19 19 19 19 20 19 18 17 17 16 16 16 16 15 15 16 16 15 15 16 16 17 17 17 15 13 12 13 14 14 9 6 6 6 6 8 8 9 11 13 13 15 16 15 12 10 10 12 13 15 15 16 17 17 18 17 16 16 14 12 11 11 11 13 14 16 17 19 21
30 29 28 27 26 25 25 24 23 22 21 20 20 20 20 21 20 20 20 20 21 21 20 19 18 18 18 18 17 16 16 17 17 16 16 16 16 16 16 16 16 15 14 15 15 15 14 10 6 5 6 8 9 10 11 13 15 17 18 17 14 11 11 14 15 16 16 16 16 16 15 15 15 12 9 9 10 12 13 14 16 17 20 23 26
33 32 31 30 29 28 27 26 25 24 23 23 23 22 22 22 22 22 21 21 21 21 21 21 20 20 20 20 18 16 17 19 19 18 17 17 17 17 17 16 17 16 15 16 16 16 17 15 10 8 9 10 10 11 13 14 16 17 18 18 16 13 13 14 15 16 15 14 14 14 14 14 11 9 8 10 12 13 15 16 18 21 24 26 28
37 35 34 33 32 31 31 30 29 28 26 25 25 25 24 22 22 22 22 23 23 23 22 21 20 20 20 21 20 18 18 19 20 19 18 18 18 18 17 17 16 16 16 17 17 17 19 19 15 12 11 12 12 11 14 16 18 18 18 17 15 15 14 13 12 13 12 12 13 13 13 11 9 9 11 12 13 14 17 19 21 24 26 27 28
41 39 38 36 36 35 34 33 32 31 29 29 28 27 26 25 24 22 22 23 23 24 24 23 22 21 20 20 20 20 19 19 19 19 18 18 17 17 18 17 16 16 16 17 17 18 19 19 18 16 14 14 13 12 14 17 20 20 20 17 14 13 12 11 9 10 11 12 13 13 12 9 9 12 13 14 15 17 19 21 23 25 26 27 28
45 43 42 40 39 38 37 36 35 33 32 32 31 29 28 28 26 25 23 23 23 24 25 25 25 24 22 21 21 21 20 19 18 18 18 18 18 17 17 17 16 17 17 17 16 17 19 19 19 18 17 16 15 15 16 18 19 19 20 19 14 11 12 11 10 10 10 11 12 12 11 10 11 13 14 15 17 19 21 23 24 25 26 27 28
48 46 45 43 41 40 39 38 37 36 35 34 33 32 31 30 29 28 26 25 24 24 24 25 25 26 25 24 22 21 21 20 19 18 19 19 19 19 18 18 18 19 19 18 17 18 19 19 19 19 19 18 16 16 17 18 18 17 18 18 16 13 12 12 12 11 11 11 12 11 10 10 12 14 16 17 19 21 23 24 24 24 25 26 28
49 48 47 45 44 43 41 40 39 38 38 37 35 34 33 32 31 30 28 27 26 25 25 25 25 26 26 25 24 23 22 21 20 19 19 19 20 20 19 19 19 20 20 19 18 18 18 19 20 19 19 19 17 17 18 18 18 18 17 17 16 14 13 12 10 10 12 12 11 11 12 13 14 15 17 19 21 23 24 23 23 23 24 26 28
49 48 48 47 46 45 44 42 41 41 40 39 37 35 34 33 32 32 31 30 29 28 27 26 26 26 26 26 25 24 24 23 22 22 21 21 21 21 20 20 20 21 21 20 19 18 17 18 18 18 19 19 17 17 19 18 18 17 16 16 15 14 14 12 8 7 11 12 11 12 13 14 15 17 18 21 23 24 23 23 23 23 24 26 28
47 48 49 49 48 47 46 45 44 43 42 41 39 38 36 35 35 34 33 32 30 30 29 28 27 27 26 27 26 26 25 25 24 23 22 22 22 22 21 21 21 20 20 18 17 16 16 17 18 18 20 20 18 17 18 18 18 17 15 15 14 14 14 13 11 9 10 12 11 12 14 15 16 18 20 22 25 24 23 23 23 23 24 26 27
45 46 48 49 49 48 48 47 46 45 44 42 41 40 39 38 37 36 35 33 32 31 30 29 29 28 27 27 27 27 26 26 25 24 23 22 22 22 22 21 21 20 18 17 16 16 17 19 20 20 21 21 19 17 17 19 19 17 15 14 14 14 15 15 14 13 12 12 12 12 14 16 17 19 21 23 25 24 22 22 22 23 24 25 27
43 45 46 47 48 48 48 48 47 46 45 43 42 42 41 39 38 37 36 35 33 32 30 30 29 29 29 28 28 27 26 26 26 25 24 23 22 23 23 22 21 20 20 19 18 19 20 21 23 23 21 20 20 18 17 19 19 18 15 14 14 15 15 15 15 14 13 13 13 13 15 16 17 19 21 24 24 23 22 21 21 22 24 25 26
41 43 44 45 46 46 47 47 46 46 44 43 42 41 41 39 38 38 37 36 34 33 31 30 29 29 29 29 29 27 26 25 25 25 25 24 23 23 23 23 22 21 21 21 21 21 22 23 24 24 21 20 21 19 18 20 20 19 18 16 16 16 16 15 14 14 14 14 14 15 16 17 17 18 21 23 23 22 20 20 20 21 23 24 25
39 39 41 43 44 45 45 45 45 45 43 41 40 40 40 38 38 37 37 36 35 34 32 31 30 30 29 29 29 28 27 26 25 25 25 25 24 24 23 23 22 22 22 22 22 22 22 23 24 24 23 22 22 22 21 21 21 20 19 19 19 18 17 15 14 13 14 15 15 15 17 18 18 18 20 22 22 20 19 18 19 21 22 23 24
38 37 37 38 40 42 43 44 44 44 42 40 39 39 38 38 37 38 37 37 36 35 34 32 31 30 29 29 30 29 28 27 26 25 25 25 25 25 25 24 23 23 23 23 22 22 23 23 23 24 25 25 25 24 22 22 23 22 21 21 21 20 19 18 15 14 15 15 15 16 18 18 17 18 21 21 20 19 17 16 18 20 21 22 23
39 38 37 35 36 39 41 42 43 43 41 39 38 38 37 37 38 38 38 37 37 36 34 33 32 31 30 30 30 30 29 28 26 25 25 25 26 26 26 25 25 25 25 23 22 23 23 24 25 26 27 27 26 25 23 22 23 23 23 24 22 21 21 21 18 16 16 16 16 17 18 17 17 19 21 21 19 17 15 15 17 19 20 22 23
41 39 38 36 35 36 38 40 41 42 41 39 38 37 37 37 38 38 38 37 37 36 35 33 33 32 32 31 31 31 30 29 27 26 25 26 27 27 27 26 27 27 25 23 22 22 23 24 25 26 27 27 26 25 24 23 23 23 24 24 21 21 23 22 20 19 19 18 17 17 17 17 17 19 21 20 19 16 14 14 16 18 20 21 23
41 40 39 38 37 36 36 38 39 41 40 39 38 37 36 36 37 37 37 38 37 36 35 34 33 33 32 32 31 31 30 29 27 27 27 28 28 27 27 27 28 28 26 23 23 23 23 23 23 23 24 24 24 24 24 24 23 23 24 23 21 20 22 21 20 20 20 18 17 16 16 17 18 20 20 19 18 16 14 14 16 18 20 21 22
Wind_Direction
149 146 143 143 147 152 158 159 157 157 156 155 153 151 147 145 142 138 135 132 126 119 113 93 81 84 85 84 81 78 74 71 72 73 72 69 64 64 71 75 80 95 117 136 152 168 189 227 267 296 322 332 335 348 346 346 350 345 345 344 342 342 343 347 352 353 352 352 352 353 352 352 352 348 344 343 345 347 348 354 353 349 350 349 358
156 153 152 152 155 161 166 167 167 167 166 162 158 157 153 151 148 143 140 132 122 114 108 95 83 83 84 83 83 81 78 72 68 72 74 70 66 65 73 77 78 82 93 104 112 123 124 45 315 319 325 332 347 356 352 352 353 348 345 342 341 342 339 339 342 342 341 342 343 342 341 342 341 338 339 338 340 344 346 349 345 342 345 349 4
164 161 161 164 165 167 173 176 177 174 173 169 164 163 160 156 152 148 147 142 132 119 105 93 82 83 88 84 84 83 79 73 66 70 72 72 71 69 72 72 73 73 78 83 84 82 70 56 42 31 23 16 15 13 8 7 1 351 344 343 340 335 330 329 330 334 335 336 336 334 331 334 336 334 335 335 336 341 343 341 337 337 344 348 1
165 164 162 168 174 177 180 183 184 180 180 178 172 170 170 165 159 155 156 156 148 136 122 105 80 78 86 85 88 90 84 77 69 67 66 68 69 68 70 68 66 63 63 64 62 61 56 49 43 38 38 33 28 22 16 10 357 344 335 332 329 324 322 322 326 332 332 332 332 331 330 330 331 329 330 331 332 335 336 333 331 333 341 345 353
162 162 161 163 173 181 186 188 186 181 181 183 178 176 176 170 167 164 163 164 158 152 155 150 93 77 83 82 86 91 87 79 70 64 60 62 63 63 66 63 61 56 53 52 47 47 41 35 29 23 21 18 14 6 355 345 333 326 322 320 320 319 320 320 326 330 328 330 330 328 327 325 323 323 325 326 326 329 329 328 330 332 337 339 339
164 161 166 169 173 175 181 186 184 180 182 185 186 185 179 174 174 171 168 168 160 155 164 170 129 88 87 81 80 83 84 77 69 65 61 58 57 56 53 47 47 46 43 39 32 30 24 16 11 3 356 349 342 336 327 321 316 314 315 315 318 323 325 324 325 327 326 328 328 323 321 320 318 318 320 321 321 322 322 324 329 329 332 329 317
170 166 169 173 173 171 175 182 184 183 184 189 193 190 179 176 177 174 172 172 165 168 190 196 162 102 93 82 74 71 74 75 72 68 64 58 55 52 44 36 34 32 30 26 21 18 15 11 3 355 348 340 333 329 323 318 314 312 315 316 319 323 321 320 320 321 322 322 319 316 314 310 308 307 310 310 311 313 315 321 324 322 324 313 291
179 175 177 175 172 172 176 181 185 184 182 188 192 185 178 178 178 176 175 172 169 172 180 196 190 130 94 80 68 59 56 64 80 74 60 57 59 57 45 34 29 28 26 21 16 15 15 14 7 360 351 343 337 333 329 324 320 318 319 319 320 319 317 321 325 326 325 321 315 313 311 307 301 295 295 298 303 310 317 322 318 314 312 292 276
193 188 187 187 183 180 181 181 182 186 183 186 187 179 176 178 178 178 177 173 169 168 158 152 164 135 88 70 54 39 30 33 84 85 52 55 65 61 46 33 29 32 25 12 8 7 9 12 6 358 347 341 336 333 331 330 327 323 321 322 324 325 327 333 338 338 336 333 329 326 324 323 321 311 303 304 311 319 324 320 314 308 298 280 273
204 202 195 192 190 185 184 181 180 186 187 188 183 176 176 179 181 181 180 176 173 173 168 161 157 136 93 56 24 23 16 8 54 56 39 56 68 60 46 36 35 37 25 8 2 354 350 355 349 342 337 332 329 329 329 331 332 330 328 329 330 331 336 342 346 348 345 343 343 342 342 342 339 331 322 319 321 324 323 316 308 302 293 278 272
211 207 201 195 194 191 189 185 181 184 187 186 182 177 177 178 181 181 182 183 181 180 179 179 179 178 197 308 351 358 3 3 42 27 36 81 93 67 51 40 37 34 28 19 9 351 335 341 341 337 341 339 334 332 332 334 337 342 342 339 337 338 342 348 351 353 352 350 350 351 352 352 349 344 337 333 329 327 323 317 308 299 289 278 273
217 205 204 200 200 203 199 192 186 186 186 185 184 184 181 178 177 177 181 184 179 178 178 181 185 191 215 250 286 318 341 3 3 354 44 100 101 74 50 38 30 22 21 24 28 21 8 1 357 358 7 1 355 353 351 349 346 346 348 346 345 345 347 352 354 356 356 354 353 354 355 354 353 352 348 340 335 329 323 315 306 297 286 278 274
223 205 203 202 202 207 205 198 194 193 189 188 192 192 186 180 177 177 180 179 174 174 177 186 195 200 213 235 238 254 296 315 360 356 104 98 82 54 31 26 22 11 8 14 29 43 42 30 21 28 32 28 23 19 9 1 352 344 342 346 348 347 348 350 352 355 358 358 356 355 354 355 355 352 349 344 335 326 319 313 303 296 290 283 278
226 208 204 205 205 208 202 196 196 196 191 190 194 191 188 183 181 182 184 184 181 180 180 190 202 208 210 223 230 229 235 228 224 195 155 108 49 8 4 9 12 2 358 9 22 39 41 32 34 50 54 48 38 26 13 1 347 334 330 337 343 343 343 344 348 352 355 358 358 357 354 354 353 348 345 345 340 329 322 318 312 304 298 291 287
223 210 206 208 207 203 197 195 196 197 194 191 191 190 190 188 187 188 190 191 187 182 179 185 198 209 212 217 219 228 233 224 218 213 218 240 293 336 349 359 1 348 351 14 20 22 33 34 39 47 44 40 32 21 14 4 345 327 321 327 334 336 335 338 346 351 354 355 355 355 353 352 351 346 341 340 338 332 326 324 319 313 306 300 296
221 213 205 205 203 198 198 199 200 202 201 195 192 193 194 195 194 193 194 194 188 186 189 195 209 218 219 216 210 236 256 259 234 217 226 244 268 315 327 341 342 329 334 360 6 1 14 25 29 28 24 26 25 20 20 15 1 344 334 334 335 333 332 340 350 354 356 355 353 354 354 352 349 346 341 336 334 330 326 323 318 315 312 308 304
218 213 204 201 199 197 198 198 199 202 202 197 196 197 198 199 200 199 201 201 197 198 202 208 220 223 219 214 223 256 272 288 256 222 226 234 251 293 305 320 322 315 316 324 331 334 339 350 3 12 23 30 23 22 26 24 17 8 360 356 352 346 344 351 1 7 7 3 2 1 0 358 354 351 345 341 338 333 330 327 321 317 314 311 309
214 209 203 199 195 196 196 195 197 200 200 197 196 198 199 201 203 204 206 207 203 201 201 207 213 214 218 224 247 278 281 277 263 247 245 232 236 271 289 306 313 310 308 307 312 319 321 322 333 348 3 13 13 19 26 27 25 20 15 10 5 0 358 1 7 13 14 11 8 6 4 2 357 354 350 346 344 340 336 333 329 325 320 315 312
211 206 201 197 195 196 198 197 197 199 201 198 194 196 198 201 204 207 209 211 209 204 199 204 208 211 222 226 237 258 254 247 270 293 284 268 255 268 294 309 313 310 303 301 305 310 312 313 321 333 344 354 359 11 21 26 24 22 19 15 10 7 4 5 7 9 9 6 5 3 360 357 354 351 348 345 342 339 336 333 331 328 325 321 318
208 206 202 200 198 197 199 201 200 199 200 197 194 195 196 199 204 207 213 218 218 210 205 209 213 217 218 212 215 222 218 240 279 301 300 302 288 287 310 312 309 308 298 293 301 307 312 318 330 340 345 349 358 11 19 22 21 21 21 17 12 8 4 2 1 360 359 358 358 357 355 353 350 347 345 342 339 336 334 330 327 325 322 320 318
209 207 205 206 205 200 200 203 203 201 199 195 195 197 194 198 204 208 215 219 217 211 212 216 219 220 214 206 209 218 226 250 268 279 295 325 319 313 320 314 311 315 304 300 307 311 321 338 354 359 358 1 3 9 15 18 20 23 23 18 12 10 7 4 2 360 359 359 357 356 354 352 349 346 344 342 339 336 332 329 326 323 320 317 314
211 209 208 208 208 206 203 203 205 206 203 200 199 200 198 197 201 208 214 217 217 213 213 217 219 215 211 212 220 226 229 235 238 254 281 331 337 327 325 322 321 320 316 323 321 316 324 336 354 360 353 351 351 354 1 8 12 16 18 16 12 11 9 8 7 5 2 1 358 356 353 351 348 346 343 341 339 336 334 331 328 326 322 317 313
213 212 211 209 209 211 207 203 205 209 210 209 203 199 199 195 196 206 215 220 220 215 213 216 217 214 213 219 225 223 220 221 227 256 287 296 320 334 337 327 318 311 310 317 316 309 312 322 337 344 337 333 331 332 337 346 354 1 6 8 7 6 5 3 2 359 356 354 352 351 349 347 345 343 340 339 337 336 335 334 331 329 324 320 318
214 214 213 209 208 212 210 204 204 210 214 215 211 203 197 195 199 208 216 222 223 221 219 219 219 218 219 225 228 220 214 218 232 255 269 278 299 322 334 319 306 303 302 306 309 307 308 317 325 326 323 321 320 320 320 326 337 347 352 354 355 354 353 353 351 349 347 345 343 342 342 341 339 338 337 336 335 335 336 335 332 330 326 324 323
213 213 211 209 209 211 210 208 206 209 213 217 218 212 204 201 202 206 212 220 227 228 229 229 227 226 224 227 227 216 208 220 245 259 263 273 286 301 312 305 298 296 296 299 303 304 308 312 307 306 315 321 323 321 316 318 327 336 338 337 339 340 339 340 340 339 338 337 335 334 334 335 335 335 334 334 335 336 337 335 333 332 329 326 325
214 213 211 211 212 212 212 212 211 210 213 218 221 220 216 210 204 205 209 219 231 233 235 235 232 229 224 219 215 207 204 221 250 260 268 276 283 290 293 297 299 301 299 294 292 293 295 291 286 295 313 323 325 321 317 319 324 328 325 322 323 325 326 328 330 332 334 334 334 333 333 334 334 335 336 336 337 337 336 335 332 330 328 325 324
216 215 213 213 214 215 214 215 215 214 215 220 223 224 225 221 214 213 213 217 230 234 234 235 232 228 219 211 207 207 208 222 240 255 275 278 275 277 282 294 306 312 311 301 289 286 287 281 282 297 312 318 320 319 322 327 327 324 320 317 317 318 320 323 328 332 335 337 339 340 342 344 345 346 345 342 339 336 334 332 329 328 326 325 325
219 217 216 215 215 216 216 216 218 219 219 222 226 228 230 229 225 225 224 221 227 231 231 233 233 228 219 212 211 212 215 225 233 245 269 275 272 272 279 295 308 315 318 315 301 289 287 278 277 292 303 307 311 313 318 325 327 325 323 320 320 322 325 328 332 336 340 343 346 350 352 353 351 349 347 340 334 332 331 329 328 328 328 327 325
222 221 219 218 218 217 217 216 217 221 222 223 227 231 234 236 234 233 234 232 232 233 233 235 235 230 222 220 222 221 221 228 235 245 259 269 270 273 284 296 306 314 315 314 311 297 289 283 279 283 287 294 300 306 313 321 325 325 324 324 326 329 332 336 340 344 348 351 353 350 346 343 340 339 337 330 325 326 327 327 329 329 326 322 319
222 223 223 221 220 220 218 217 218 222 225 225 228 232 236 240 241 239 240 241 240 240 241 243 241 238 232 229 230 231 231 234 241 248 256 262 266 273 284 293 302 309 306 307 313 303 287 288 288 289 289 292 299 306 313 319 322 323 325 329 332 334 336 341 345 348 350 350 343 335 332 331 331 331 328 323 322 325 327 329 329 325 319 315 313
221 223 225 223 220 219 219 219 219 222 227 228 228 232 235 239 242 243 244 246 246 244 245 248 246 245 245 240 239 239 237 238 241 248 255 259 264 269 277 286 294 295 292 299 306 299 286 287 287 293 300 301 305 311 315 320 323 326 331 335 334 332 333 336 339 340 341 337 330 328 329 331 330 329 326 325 325 327 328 327 322 316 314 315 316
223 222 224 223 220 220 222 223 224 226 230 231 231 232 234 237 240 242 244 248 250 250 250 251 249 248 250 250 248 246 242 239 239 243 251 256 261 266 272 279 281 277 274 288 295 288 277 286 286 288 298 303 309 315 319 326 331 333 339 340 332 327 326 325 328 335 336 334 333 332 331 331 331 329 328 328 329 327 325 319 314 314 317 318 319
226 224 224 223 223 225 228 231 233 234 235 237 236 235 235 237 239 241 242 245 250 253 253 254 253 253 253 253 254 254 250 247 243 241 246 251 256 261 267 270 268 267 270 281 291 289 269 272 286 289 297 304 313 324 326 331 338 341 346 343 331 324 324 325 333 341 343 341 338 331 328 330 331 330 332 332 328 323 318 315 316 319 320 319 321
230 230 229 229 229 231 234 237 239 241 242 244 244 242 241 241 241 242 243 244 247 251 253 254 256 256 256 256 255 256 256 255 252 248 246 247 252 256 260 263 263 266 270 276 288 292 285 273 278 286 299 307 317 331 333 336 342 346 348 346 339 334 334 336 342 346 346 343 337 331 330 331 332 334 335 331 322 317 316 319 321 323 323 325 328
234 235 235 235 236 237 239 240 242 244 246 248 249 247 246 245 245 245 246 247 248 250 252 255 257 258 259 259 258 256 258 260 259 257 254 252 253 256 258 262 265 267 270 273 281 290 295 293 284 288 303 312 322 333 336 338 343 346 346 344 344 345 345 345 347 347 346 343 340 337 336 336 337 340 334 321 317 319 321 324 326 328 330 331 332
237 238 239 240 241 242 243 244 245 246 248 249 251 250 249 248 249 249 250 250 251 252 253 255 257 258 260 262 262 260 260 262 263 263 262 261 260 261 261 263 266 268 269 271 275 283 291 294 293 298 308 314 323 332 335 337 342 345 344 342 344 347 349 350 349 348 348 346 345 343 340 341 343 338 324 321 324 325 327 331 333 334 335 335 336
239 240 240 242 244 245 246 247 248 249 250 252 252 252 252 251 251 251 252 252 254 255 255 256 256 257 259 262 264 264 263 264 265 265 266 266 263 262 262 263 266 270 270 269 272 277 283 290 294 298 304 311 317 328 335 336 340 344 340 341 346 345 347 355 352 349 350 347 346 343 341 346 345 330 327 331 333 332 336 338 338 337 336 337 339
240 241 242 243 244 246 248 249 251 252 254 255 256 255 254 254 254 254 254 254 255 256 257 257 257 257 258 261 263 265 264 264 265 266 267 268 265 262 263 265 269 273 272 269 271 274 278 284 290 294 300 307 313 323 334 337 341 343 337 338 347 346 346 357 355 345 344 344 348 347 345 349 342 332 335 339 338 338 340 340 338 337 338 339 341
241 242 243 244 245 247 248 250 251 253 255 257 258 258 257 257 257 258 257 257 257 258 259 259 259 258 257 258 260 262 263 263 264 267 269 271 271 269 268 269 271 273 273 272 272 275 277 280 284 290 297 304 310 320 331 337 341 342 335 333 344 349 349 356 354 340 333 338 351 353 350 352 344 337 340 342 339 339 340 339 339 339 340 341 341
242 243 244 245 246 247 249 250 252 253 255 256 258 258 259 259 260 260 261 261 260 260 260 260 260 259 257 256 256 257 260 262 262 265 269 272 274 274 274 274 275 274 275 275 276 276 277 279 282 289 295 299 306 317 327 335 339 339 332 329 336 344 347 353 354 338 326 337 355 357 353 356 349 340 342 342 339 340 340 340 339 340 341 342 339
245 245 246 247 248 249 250 251 253 254 255 256 256 257 258 259 261 262 263 264 263 261 260 260 260 260 258 256 254 254 257 260 262 264 266 269 272 274 275 276 276 276 276 276 277 277 278 280 282 288 293 294 302 315 325 334 338 336 330 325 329 334 336 345 352 335 323 336 357 357 353 356 349 342 342 342 340 341 341 340 339 341 342 341 338
247 248 248 249 249 250 252 253 254 255 256 257 257 257 258 259 262 264 265 266 265 263 261 260 260 260 258 257 256 255 256 258 261 263 264 266 269 271 272 273 274 275 274 274 275 274 277 280 282 288 292 292 300 315 323 331 334 330 323 319 320 324 327 335 347 336 324 332 349 352 349 349 345 341 341 342 341 342 342 340 340 342 342 340 336
249 249 250 250 251 252 253 254 256 257 257 258 258 258 259 260 261 263 265 266 266 264 262 261 260 260 259 258 257 257 258 259 260 262 264 265 266 267 269 272 274 273 270 269 270 271 275 281 284 288 292 293 300 313 321 326 327 322 315 312 313 316 321 327 333 331 325 327 338 345 343 342 341 338 339 341 341 342 342 341 341 341 340 338 336
249 250 250 252 252 253 254 255 256 258 259 259 260 261 261 262 263 263 264 265 265 264 263 261 261 261 261 259 258 258 258 259 260 261 262 263 264 265 268 272 274 270 263 260 264 268 274 280 283 284 287 292 299 309 320 322 319 314 308 304 305 307 312 318 322 324 322 322 329 335 334 335 335 334 335 339 340 341 341 340 339 339 338 338 337
251 251 252 253 253 254 254 255 256 258 259 260 261 262 263 263 264 264 263 263 263 263 263 262 261 261 261 261 260 259 258 258 259 260 261 261 262 264 267 271 272 268 262 259 260 265 272 278 280 281 284 291 296 304 316 317 311 306 299 294 295 298 304 312 315 318 317 314 318 325 326 328 330 329 331 335 338 339 340 338 336 336 337 337 337
252 253 254 254 254 255 254 255 256 258 259 260 261 262 263 264 264 264 263 263 263 263 263 263 262 262 262 262 262 260 258 258 258 259 260 260 261 262 266 269 270 268 265 263 262 264 269 275 279 281 284 289 293 299 309 309 303 298 293 288 289 291 298 306 309 312 311 306 310 318 320 322 325 325 327 332 335 336 338 336 334 334 335 336 337
252 254 255 255 255 256 255 255 256 257 258 259 260 261 262 263 263 264 263 263 262 262 262 263 263 263 262 263 262 260 259 257 255 256 257 258 260 262 264 265 267 268 267 267 267 267 268 271 275 279 282 285 289 293 298 299 296 293 288 284 284 287 292 297 301 306 306 302 305 312 314 317 321 322 325 330 332 334 336 334 331 332 333 334 336
252 254 255 256 256 256 255 255 255 256 257 257 259 260 261 262 263 263 263 263 263 262 262 261 262 262 262 261 260 259 258 256 253 251 252 256 259 261 263 263 264 266 266 266 268 268 268 268 270 274 277 280 284 286 287 289 290 290 287 281 279 283 288 290 294 302 304 301 303 307 308 312 318 321 324 327 329 331 332 331 329 329 331 333 335
251 252 254 256 258 257 256 255 254 255 256 256 257 258 259 261 262 262 263 263 263 263 262 260 261 262 261 260 259 258 258 256 253 250 251 255 260 262 263 263 265 266 265 263 265 266 267 269 270 271 273 276 278 280 281 283 285 286 286 283 280 281 284 285 289 298 301 300 302 304 306 310 316 320 323 324 325 328 329 328 328 328 329 331 333
252 253 254 256 259 259 257 256 254 254 255 256 256 257 259 260 261 262 262 263 263 264 263 261 261 262 261 260 259 258 257 255 253 252 252 257 261 262 263 265 268 268 264 261 264 267 268 271 271 271 272 273 274 275 275 277 279 281 283 284 281 279 279 281 287 295 297 297 300 302 304 308 314 319 321 322 322 324 326 326 325 326 327 330 331
253 254 254 255 257 259 259 258 256 255 256 256 256 256 257 258 260 260 261 262 262 262 262 260 260 261 261 260 259 258 256 255 253 253 255 259 262 263 264 268 270 268 264 264 268 271 272 274 273 271 271 270 269 270 271 275 278 281 283 282 278 274 275 278 284 290 294 296 300 303 304 305 310 316 319 320 321 322 324 325 325 325 327 329 330
Height
1589 1589 1590 1590 1591 1591 1591 1592 1592 1593 1593 1593 1593 1594 1594 1594 1594 1594 1595 1595 1594 1594 1594 1594 1594 1595 1595 1594 1594 1594 1594 1594 1594 1594 1595 1595 1595 1595 1594 1594 1594 1594 1594 1595 1595 1595 1595 1595 1595 1595 1595 1596 1595 1595 1595 1595 1595 1595 1594 1594 1594 1594 1594 1593 1593 1593 1592 1592 1592 1592 1591 1591 1591 1590 1590 1589 1588 1587 1587 1586 1585 1585 1584 1583 1582
1589 1590 1591 1591 1591 1592 1592 1593 1593 1594 1594 1594 1594 1594 1595 1595 1595 1595 1595 1595 1595 1595 1595 1595 1595 1595 1595 1595 1595 1595 1595 1595 1595 1595 1595 1595 1595 1595 1595 1595 1595 1595 1595 1595 1595 1595 1595 1595 1595 1596 1596 1596 1596 1596 1595 1595 1595 1595 1595 1595 1595 1594 1594 1594 1593 1593 1593 1593 1592 1592 1591 1591 1591 1590 1590 1589 1588 1588 1587 1586 1585 1585 1584 1583 1582
1590 1591 1591 1592 1592 1592 1593 1593 1594 1594 1594 1595 1595 1595 1595 1595 1596 1596 1596 1596 1596 1596 1596 1596 1596 1596 1596 1596 1596 1596 1596 1596 1596 1596 1596 1596 1596 1596 1596 1596 1596 1596 1596 1596 1596 1596 1596 1596 1596 1596 1596 1596 1596 1596 1596 1596 1595 1595 1595 1595 1595 1595 1594 1594 1594 1593 1593 1593 1592 1592 1592 1591 1591 1590 1590 1589 1588 1588 1587 1586 1585 1585 1584 1583 1582
1590 1591 1592 1592 1593 1593 1593 1594 1594 1594 1595 1595 1595 1595 1596 1596 1596 1597 1597 1597 1597 1597 1597 1597 1597 1597 1596 1596 1596 1597 1596 1596 1597 1597 1597 1597 1597 1597 1597 1597 1597 1597 1597 1597 1597 1596 1596 1596 1596 1596 1596 1596 1596 1596 1596 1596 1596 1595 1595 1595 1595 1595 1594 1594 1594 1594 1593 1593 1592 1592 1592 1591 1591 1590 1589 1589 1588 1587 1587 1586 1585 1584 1584 1583 1582
1590 1591 1592 1592 1593 1593 1594 1594 1594 1595 1595 1595 1596 1596 1596 1596 1597 1597 1597 1597 1597 1597 1597 1597 1597 1597 1597 1597 1597 1597 1597 1597 1598 1598 1598 1597 1597 1597 1597 1597 1597 1597 1597 1597 1597 1597 1597 1597 1597 1597 1596 1596 1596 1596 1596 1596 1596 1596 1595 1595 1595 1594 1594 1594 1594 1594 1593 1593 1593 1592 1592 1591 1590 1590 1589 1589 1588 1587 1587 1586 1585 1584 1583 1583 1582
1590 1591 1592 1592 1593 1593 1594 1594 1594 1595 1595 1596 1596 1596 1596 1597 1597 1597 1597 1598 1598 1597 1597 1597 1597 1597 1597 1597 1597 1598 1598 1598 1598 1598 1598 1598 1598 1598 1598 1598 1598 1598 1598 1598 1597 1597 1597 1597 1597 1597 1597 1596 1596 1596 1596 1596 1596 1596 1595 1595 1595 1594 1594 1594 1594 1594 1593 1593 1592 1592 1591 1591 1590 1589 1589 1588 1588 1587 1586 1585 1585 1584 1583 1583 1582
1590 1591 1592 1592 1592 1593 1594 1594 1595 1595 1596 1596 1596 1596 1596 1597 1597 1598 1598 1598 1598 1598 1598 1598 1598 1598 1598 1597 1598 1598 1598 1599 1599 1599 1599 1598 1598 1598 1598 1598 1598 1598 1598 1598 1598 1598 1598 1597 1597 1597 1597 1597 1596 1596 1596 1596 1596 1595 1595 1595 1594 1594 1594 1594 1594 1593 1593 1592 1592 1591 1591 1590 1590 1589 1588 1588 1587 1586 1586 1585 1585 1584 1583 1583 1582
1591 1591 1592 1592 1593 1593 1594 1594 1595 1595 1596 1596 1596 1596 1596 1597 1597 1598 1598 1598 1598 1599 1598 1598 1598 1598 1598 1598 1598 1599 1599 1599 1599 1599 1599 1599 1599 1599 1599 1599 1599 1598 1598 1598 1598 1598 1598 1597 1597 1597 1597 1597 1596 1596 1596 1596 1596 1595 1595 1595 1594 1594 1594 1594 1593 1593 1592 1592 1591 1591 1590 1590 1589 1588 1588 1587 1587 1586 1585 1585 1584 1584 1583 1583 1582
1591 1591 1592 1592 1593 1593 1594 1594 1595 1595 1596 1596 1596 1596 1596 1597 1597 1598 1598 1598 1599 1599 1599 1598 1598 1598 1598 1598 1599 1599 1599 1600 1600 1600 1599 1599 1599 1599 1599 1599 1599 1599 1599 1599 1599 1598 1598 1598 1598 1597 1597 1597 1597 1597 1596 1596 1596 1595 1595 1595 1594 1594 1594 1594 1593 1592 1592 1591 1591 1590 1590 1589 1588 1588 1587 1587 1586 1585 1585 1585 1584 1584 1583 1583 1582
1591 1591 1592 1593 1593 1593 1594 1594 1595 1595 1596 1596 1596 1597 1597 1597 1598 1598 1598 1599 1599 1599 1599 1599 1599 1599 1599 1599 1599 1599 1600 1600 1600 1600 1600 1600 1600 1600 1600 1600 1599 1599 1599 1599 1599 1599 1598 1598 1598 1598 1597 1597 1597 1597 1596 1596 1596 1596 1595 1595 1595 1594 1594 1593 1593 1592 1592 1591 1590 1590 1589 1588 1588 1587 1587 1586 1586 1585 1585 1584 1584 1584 1583 1583 1582
1591 1591 1592 1592 1593 1594 1594 1594 1595 1595 1596 1596 1597 1597 1597 1598 1598 1598 1599 1599 1599 1599 1599 1599 1599 1599 1600 1600 1600 1600 1600 1600 1600 1600 1600 1600 1600 1600 1600 1600 1600 1600 1600 1599 1599 1599 1598 1598 1598 1598 1598 1597 1597 1597 1597 1596 1596 1596 1595 1595 1595 1594 1594 1593 1593 1592 1592 1591 1590 1590 1589 1588 1588 1587 1586 1586 1585 1585 1585 1584 1584 1583 1583 1582 1582
1591 1591 1592 1593 1593 1594 1594 1594 1595 1595 1596 1596 1597 1597 1597 1598 1598 1598 1599 1599 1599 1600 1600 1600 1600 1600 1600 1600 1600 1600 1600 1600 1600 1600 1601 1601 1601 1601 1600 1600 1600 1600 1600 1600 1599 1599 1599 1598 1598 1598 1598 1597 1597 1597 1597 1596 1596 1596 1596 1595 1595 1594 1594 1593 1593 1592 1592 1591 1591 1590 1589 1588 1588 1587 1586 1586 1585 1585 1585 1584 1584 1583 1582 1582 1581
1590 1591 1592 1593 1593 1593 1594 1594 1595 1595 1596 1596 1597 1597 1598 1598 1598 1599 1599 1599 1600 1600 1600 1601 1601 1601 1601 1601 1601 1600 1600 1600 1600 1601 1601 1601 1601 1601 1601 1601 1601 1601 1601 1600 1600 1599 1599 1599 1598 1598 1598 1597 1597 1597 1597 1596 1596 1596 1596 1596 1595 1595 1594 1594 1593 1592 1592 1591 1591 1590 1589 1588 1588 1587 1586 1586 1585 1585 1584 1584 1583 1583 1582 1581 1581
1590 1591 1592 1592 1593 1593 1594 1594 1595 1595 1596 1596 1597 1597 1598 1598 1599 1599 1599 1600 1600 1600 1601 1601 1601 1601 1601 1601 1601 1601 1601 1601 1601 1601 1601 1601 1601 1601 1601 1601 1601 1601 1601 1601 1600 1600 1600 1599 1599 1598 1598 1598 1597 1597 1597 1597 1596 1596 1596 1596 1595 1595 1595 1594 1593 1593 1592 1591 1591 1590 1589 1589 1588 1587 1586 1586 1585 1585 1584 1584 1583 1582 1582 1581 1580
1590 1591 1591 1592 1593 1593 1594 1594 1595 1595 1596 1596 1597 1597 1598 1598 1599 1599 1599 1600 1600 1600 1601 1601 1601 1601 1602 1602 1602 1601 1601 1601 1601 1601 1601 1601 1601 1601 1601 1601 1601 1601 1601 1601 1601 1600 1600 1600 1599 1599 1598 1598 1597 1597 1597 1596 1596 1596 1596 1596 1596 1595 1595 1594 1593 1593 1592 1591 1591 1590 1589 1589 1588 1587 1587 1586 1586 1585 1584 1584 1583 1582 1581 1581 1580
1590 1590 1591 1592 1593 1593 1594 1595 1595 1595 1596 1596 1597 1597 1598 1598 1599 1599 1600 1600 1600 1600 1601 1601 1601 1601 1602 1602 1602 1602 1601 1601 1601 1601 1601 1601 1601 1601 1601 1601 1601 1601 1601 1601 1601 1601 1600 1600 1599 1599 1598 1598 1598 1597 1597 1596 1596 1596 1596 1596 1596 1595 1595 1594 1593 1593 1592 1592 1591 1590 1589 1589 1588 1587 1587 1586 1585 1585 1584 1583 1583 1582 1581 1580 1579
1590 1590 1591 1592 1593 1593 1594 1594 1595 1595 1596 1596 1597 1597 1598 1598 1599 1599 1600 1600 1600 1601 1601 1601 1601 1601 1602 1602 1602 1602 1602 1601 1601 1601 1601 1601 1601 1601 1601 1601 1601 1601 1601 1601 1601 1601 1600 1600 1599 1599 1598 1598 1598 1597 1597 1597 1596 1596 1596 1596 1596 1595 1595 1594 1594 1593 1592 1592 1591 1590 1590 1589 1588 1587 1587 1586 1585 1584 1583 1583 1582 1581 1580 1579 1578
1589 1590 1591 1592 1593 1593 1594 1594 1595 1595 1596 1596 1596 1597 1598 1598 1599 1599 1600 1600 1601 1601 1601 1601 1601 1601 1602 1602 1602 1602 1602 1602 1602 1602 1601 1601 1601 1601 1601 1601 1601 1601 1601 1600 1600 1600 1600 1600 1599 1599 1598 1598 1598 1597 1597 1597 1597 1597 1597 1597 1596 1596 1595 1595 1594 1593 1593 1592 1591 1590 1590 1589 1588 1587 1586 1586 1585 1584 1583 1582 1581 1580 1579 1578 1577
1589 1590 1590 1591 1592 1593 1594 1594 1595 1595 1595 1596 1596 1597 1598 1598 1599 1599 1600 1600 1601 1601 1601 1601 1602 1602 1602 1602 1602 1603 1603 1603 1602 1602 1602 1602 1601 1601 1601 1601 1601 1600 1600 1600 1600 1599 1599 1599 1599 1598 1598 1598 1598 1598 1597 1597 1597 1597 1597 1597 1597 1596 1595 1595 1594 1593 1593 1592 1591 1590 1589 1589 1588 1587 1586 1585 1584 1583 1582 1581 1580 1579 1578 1577 1576
1589 1589 1590 1591 1592 1593 1593 1594 1594 1595 1595 1596 1596 1597 1597 1598 1599 1599 1600 1600 1601 1601 1601 1601 1602 1602 1602 1602 1603 1603 1603 1603 1603 1603 1602 1602 1602 1602 1602 1601 1601 1601 1600 1600 1599 1599 1599 1598 1598 1598 1598 1598 1598 1598 1598 1597 1597 1597 1597 1597 1597 1596 1596 1595 1594 1594 1593 1592 1591 1590 1589 1588 1587 1586 1585 1584 1583 1582 1581 1580 1579 1578 1577 1575 1575
1588 1589 1590 1591 1592 1592 1593 1594 1594 1595 1595 1596 1596 1597 1597 1598 1599 1599 1600 1600 1600 1601 1601 1601 1602 1602 1602 1603 1603 1603 1603 1603 1603 1603 1603 1603 1602 1602 1602 1601 1601 1601 1600 1600 1599 1599 1598 1598 1598 1598 1598 1598 1598 1598 1598 1598 1597 1597 1597 1597 1597 1596 1596 1595 1594 1593 1593 1592 1591 1589 1588 1587 1586 1585 1584 1583 1582 1581 1579 1578 1577 1576 1575 1574 1573
1587 1588 1589 1590 1591 1592 1593 1594 1594 1595 1595 1596 1596 1597 1597 1598 1599 1599 1600 1600 1600 1600 1601 1601 1601 1602 1602 1602 1603 1603 1603 1603 1603 1603 1603 1603 1603 1603 1602 1602 1601 1601 1601 1600 1599 1599 1598 1598 1598 1598 1598 1598 1598 1598 1598 1598 1597 1597 1597 1597 1596 1596 1595 1595 1594 1593 1592 1591 1590 1589 1588 1587 1586 1584 1583 1582 1581 1579 1578 1577 1575 1574 1573 1572 1570
1587 1588 1589 1590 1591 1592 1592 1593 1594 1594 1595 1596 1596 1597 1597 1598 1599 1599 1600 1600 1600 1600 1601 1601 1601 1601 1602 1602 1603 1603 1603 1603 1604 1604 1603 1603 1603 1603 1602 1602 1602 1601 1601 1600 1600 1599 1599 1598 1598 1598 1598 1598 1598 1598 1597 1597 1597 1597 1597 1596 1596 1596 1595 1594 1594 1593 1592 1591 1589 1588 1587 1586 1585 1583 1582 1581 1579 1578 1576 1575 1574 1572 1571 1569 1568
1586 1587 1588 1589 1590 1591 1592 1593 1593 1594 1595 1595 1596 1596 1597 1598 1598 1599 1599 1600 1600 1600 1600 1601 1601 1601 1602 1602 1603 1603 1603 1603 1604 1603 1603 1603 1603 1603 1602 1602 1602 1602 1601 1600 1600 1599 1599 1598 1598 1598 1598 1597 1597 1597 1597 1597 1596 1596 1596 1596 1596 1595 1594 1594 1593 1592 1591 1590 1588 1587 1586 1585 1583 1582 1581 1579 1578 1576 1575 1573 1572 1571 1569 1567 1565
1584 1585 1586 1588 1589 1590 1591 1592 1592 1593 1594 1595 1596 1596 1597 1597 1598 1598 1599 1600 1600 1600 1600 1601 1601 1601 1602 1602 1602 1602 1603 1603 1603 1603 1603 1603 1603 1603 1602 1602 1602 1602 1601 1601 1600 1600 1599 1599 1598 1598 1598 1597 1597 1597 1596 1596 1596 1596 1595 1595 1595 1594 1593 1593 1592 1591 1589 1588 1587 1586 1584 1583 1582 1580 1579 1578 1576 1575 1573 1572 1570 1569 1567 1565 1563
1583 1584 1585 1587 1588 1589 1590 1591 1592 1593 1594 1594 1595 1596 1596 1597 1597 1598 1599 1599 1600 1600 1600 1601 1601 1601 1602 1602 1602 1602 1603 1603 1603 1603 1603 1603 1603 1603 1603 1602 1602 1602 1601 1600 1600 1599 1599 1599 1598 1598 1598 1597 1597 1597 1596 1596 1595 1595 1594 1594 1593 1593 1592 1591 1590 1589 1588 1587 1585 1584 1583 1581 1580 1579 1577 1576 1575 1573 1572 1570 1568 1567 1565 1563 1561
1582 1584 1585 1586 1587 1589 1590 1591 1592 1593 1593 1594 1595 1595 1596 1596 1597 1598 1598 1599 1599 1600 1600 1600 1601 1601 1602 1602 1602 1602 1603 1603 1603 1603 1603 1603 1603 1603 1603 1602 1602 1601 1601 1600 1599 1599 1599 1599 1598 1598 1598 1597 1597 1597 1596 1596 1595 1594 1593 1592 1592 1591 1591 1590 1589 1587 1586 1585 1584 1583 1581 1580 1579 1577 1576 1575 1573 1572 1570 1568 1567 1565 1563 1561 1559
1582 1583 1584 1585 1587 1588 1589 1590 1591 1592 1593 1593 1594 1595 1595 1596 1597 1597 1598 1598 1599 1599 1600 1600 1601 1601 1602 1602 1602 1602 1603 1603 1603 1603 1603 1603 1603 1603 1603 1603 1602 1601 1600 1600 1599 1599 1599 1598 1598 1598 1598 1598 1597 1596 1596 1595 1594 1593 1592 1591 1590 1590 1589 1588 1587 1586 1585 1584 1583 1582 1580 1579 1578 1576 1575 1573 1572 1570 1568 1566 1565 1563 1561 1559 1557
1581 1582 1583 1584 1586 1587 1588 1589 1590 1591 1592 1593 1593 1594 1595 1595 1596 1597 1597 1598 1598 1599 1600 1600 1600 1601 1601 1602 1602 1602 1603 1603 1603 1603 1603 1603 1603 1603 1603 1603 1602 1602 1601 1600 1599 1599 1599 1598 1598 1598 1598 1598 1597 1596 1595 1595 1593 1592 1591 1590 1589 1588 1588 1587 1586 1585 1584 1583 1582 1581 1580 1578 1577 1575 1573 1572 1570 1568 1566 1565 1563 1561 1559 1557 1555
1579 1580 1582 1583 1585 1586 1587 1588 1589 1590 1591 1592 1592 1593 1594 1595 1595 1596 1597 1598 1598 1599 1599 1600 1600 1600 1601 1601 1601 1602 1602 1602 1602 1603 1603 1603 1603 1603 1603 1602 1602 1602 1602 1601 1600 1599 1599 1599 1598 1598 1598 1597 1597 1596 1595 1594 1593 1592 1591 1590 1589 1588 1587 1586 1585 1584 1583 1582 1581 1580 1578 1577 1575 1574 1572 1570 1569 1567 1565 1563 1561 1559 1557 1554 1553
1578 1579 1581 1582 1583 1585 1586 1587 1588 1589 1590 1591 1591 1592 1593 1594 1594 1595 1596 1597 1597 1598 1599 1599 1600 1600 1600 1600 1601 1601 1602 1602 1602 1602 1602 1602 1602 1602 1602 1602 1602 1602 1602 1601 1600 1599 1599 1599 1598 1598 1597 1597 1596 1596 1595 1594 1593 1592 1591 1589 1588 1587 1586 1586 1585 1584 1583 1582 1580 1579 1578 1576 1574 1572 1571 1569 1567 1565 1563 1561 1559 1556 1555 1553 1552
1576 1577 1579 1580 1582 1583 1585 1586 1587 1588 1589 1589 1590 1591 1592 1593 1593 1594 1595 1596 1596 1597 1598 1598 1599 1599 1599 1600 1600 1600 1601 1601 1601 1602 1602 1602 1602 1602 1602 1602 1602 1602 1601 1601 1600 1599 1599 1598 1598 1598 1597 1597 1596 1596 1595 1594 1593 1592 1590 1589 1587 1586 1586 1585 1584 1583 1582 1581 1579 1578 1577 1575 1573 1571 1569 1567 1565 1563 1561 1558 1557 1555 1554 1552 1551
1574 1575 1577 1579 1580 1582 1583 1584 1585 1586 1587 1588 1589 1590 1591 1591 1592 1593 1594 1595 1595 1596 1597 1597 1598 1598 1599 1599 1599 1600 1600 1600 1601 1601 1601 1601 1601 1601 1602 1602 1602 1602 1601 1600 1599 1598 1598 1598 1598 1598 1597 1596 1596 1595 1594 1594 1593 1591 1590 1589 1587 1586 1585 1584 1584 1583 1581 1580 1578 1577 1575 1573 1571 1569 1567 1565 1563 1561 1559 1557 1556 1554 1553 1552 1550
1572 1573 1575 1577 1578 1580 1581 1582 1584 1585 1586 1587 1588 1589 1589 1590 1591 1592 1593 1593 1594 1595 1595 1596 1596 1597 1598 1598 1598 1599 1600 1600 1600 1600 1601 1601 1601 1601 1601 1601 1601 1601 1601 1600 1599 1598 1597 1597 1597 1597 1597 1596 1596 1595 1594 1593 1592 1590 1589 1588 1587 1586 1585 1584 1583 1581 1580 1578 1577 1575 1573 1572 1570 1568 1566 1563 1561 1559 1558 1557 1555 1554 1552 1551 1549
1570 1571 1573 1575 1576 1578 1579 1580 1582 1583 1584 1585 1586 1587 1588 1589 1589 1590 1591 1592 1593 1593 1594 1595 1595 1596 1596 1597 1597 1598 1599 1599 1599 1599 1600 1600 1600 1600 1600 1600 1600 1600 1600 1600 1599 1598 1597 1596 1596 1596 1596 1596 1595 1595 1594 1593 1591 1590 1589 1588 1586 1585 1584 1583 1582 1580 1578 1577 1575 1574 1572 1571 1569 1567 1564 1561 1560 1559 1558 1556 1555 1553 1551 1549 1547
1567 1569 1571 1572 1574 1576 1577 1578 1579 1581 1582 1583 1584 1586 1586 1587 1588 1589 1590 1590 1591 1592 1593 1593 1594 1595 1595 1596 1596 1598 1598 1598 1598 1599 1599 1599 1599 1599 1599 1599 1599 1600 1600 1599 1599 1598 1597 1595 1595 1596 1595 1595 1594 1594 1593 1592 1591 1590 1588 1587 1585 1584 1583 1582 1580 1579 1578 1576 1575 1573 1572 1570 1568 1565 1562 1561 1560 1559 1557 1556 1554 1552 1550 1547 1545
1564 1566 1568 1570 1571 1573 1574 1576 1577 1578 1580 1581 1582 1583 1585 1586 1586 1587 1588 1589 1590 1590 1591 1592 1593 1594 1594 1595 1595 1596 1597 1597 1597 1598 1598 1598 1599 1599 1599 1599 1599 1599 1599 1599 1598 1598 1597 1595 1595 1595 1595 1594 1594 1593 1593 1591 1590 1589 1588 1586 1585 1583 1582 1581 1580 1578 1577 1576 1575 1573 1571 1570 1567 1564 1562 1561 1560 1558 1556 1555 1552 1550 1548 1546 1543
1562 1563 1565 1567 1568 1570 1572 1573 1575 1576 1578 1579 1580 1581 1583 1584 1585 1585 1586 1587 1588 1589 1590 1591 1591 1592 1593 1593 1594 1595 1595 1596 1596 1597 1597 1598 1598 1598 1598 1598 1598 1598 1598 1598 1597 1597 1596 1595 1594 1594 1593 1593 1593 1592 1592 1591 1589 1587 1586 1585 1584 1582 1581 1580 1579 1578 1576 1575 1574 1572 1571 1569 1566 1564 1562 1561 1559 1557 1555 1553 1551 1549 1547 1544 1542
1559 1561 1562 1564 1566 1567 1569 1571 1572 1574 1575 1576 1578 1579 1580 1581 1582 1583 1584 1585 1586 1587 1588 1589 1590 1591 1591 1592 1593 1593 1594 1594 1595 1596 1596 1597 1597 1597 1597 1598 1598 1597 1597 1597 1597 1596 1595 1595 1594 1593 1593 1592 1592 1591 1591 1590 1589 1587 1584 1583 1582 1581 1580 1579 1578 1577 1576 1575 1574 1572 1570 1568 1566 1563 1562 1560 1558 1556 1554 1552 1550 1548 1545 1543 1541
1556 1558 1559 1561 1563 1564 1566 1567 1569 1571 1572 1573 1575 1576 1578 1579 1580 1581 1582 1583 1584 1585 1586 1587 1588 1589 1589 1590 1591 1592 1592 1593 1594 1594 1595 1595 1596 1596 1596 1597 1597 1596 1596 1596 1596 1595 1595 1594 1593 1593 1592 1591 1591 1591 1590 1589 1588 1586 1584 1582 1581 1580 1579 1578 1577 1576 1575 1574 1573 1571 1569 1568 1566 1563 1561 1560 1558 1555 1553 1551 1549 1547 1545 1543 1541
1552 1554 1556 1558 1560 1561 1563 1564 1566 1567 1568 1570 1571 1573 1575 1576 1577 1578 1580 1581 1582 1583 1584 1585 1585 1586 1587 1588 1589 1590 1591 1591 1592 1593 1593 1594 1594 1594 1595 1595 1595 1595 1595 1595 1595 1594 1594 1593 1593 1593 1591 1590 1590 1590 1589 1588 1587 1585 1584 1582 1581 1579 1578 1578 1577 1576 1574 1573 1572 1570 1569 1567 1565 1562 1561 1559 1556 1554 1552 1550 1548 1546 1544 1542 1540
1549 1551 1553 1555 1556 1557 1559 1560 1562 1564 1565 1566 1568 1570 1572 1573 1575 1576 1577 1578 1579 1580 1581 1582 1583 1584 1585 1586 1587 1588 1589 1590 1591 1591 1592 1593 1593 1593 1594 1594 1594 1594 1594 1594 1594 1593 1593 1593 1592 1592 1591 1589 1589 1589 1588 1587 1586 1584 1583 1581 1580 1579 1578 1577 1576 1575 1574 1572 1571 1570 1568 1566 1564 1562 1560 1558 1555 1554 1552 1549 1547 1546 1544 1542 1540
1546 1547 1549 1551 1552 1554 1555 1557 1558 1559 1561 1562 1564 1567 1569 1570 1572 1573 1574 1575 1576 1577 1578 1579 1580 1581 1583 1584 1585 1586 1587 1588 1589 1590 1590 1591 1591 1592 1592 1593 1593 1593 1592 1592 1592 1592 1592 1592 1591 1591 1590 1588 1588 1588 1587 1586 1584 1583 1582 1581 1579 1578 1577 1576 1575 1575 1573 1572 1571 1569 1567 1566 1564 1561 1559 1557 1555 1553 1551 1549 1547 1545 1543 1541 1539
1542 1544 1545 1546 1548 1550 1552 1553 1554 1555 1557 1559 1561 1563 1565 1567 1568 1569 1570 1572 1573 1574 1575 1576 1577 1578 1580 1581 1582 1583 1584 1585 1587 1588 1588 1589 1590 1590 1591 1591 1591 1591 1591 1591 1591 1591 1591 1590 1590 1589 1588 1587 1587 1586 1586 1584 1583 1582 1581 1580 1578 1577 1576 1575 1574 1573 1572 1571 1570 1568 1567 1565 1564 1561 1559 1556 1554 1552 1550 1548 1546 1545 1543 1541 1538
1539 1540 1541 1543 1544 1546 1548 1549 1550 1552 1553 1555 1557 1559 1561 1563 1564 1566 1567 1568 1569 1570 1571 1573 1574 1575 1577 1578 1579 1580 1582 1583 1584 1585 1586 1587 1587 1588 1588 1589 1589 1589 1589 1590 1590 1590 1589 1589 1588 1587 1587 1587 1585 1585 1585 1583 1581 1580 1579 1578 1577 1576 1575 1574 1573 1572 1571 1570 1569 1567 1566 1565 1563 1561 1558 1556 1554 1552 1550 1548 1546 1544 1542 1540 1538
1535 1536 1537 1539 1540 1542 1543 1545 1546 1548 1549 1551 1553 1555 1556 1558 1560 1562 1563 1564 1565 1566 1568 1569 1570 1572 1573 1575 1576 1577 1579 1580 1581 1582 1582 1583 1584 1585 1585 1586 1586 1587 1587 1587 1588 1588 1588 1587 1586 1585 1585 1585 1584 1583 1583 1582 1580 1579 1578 1577 1576 1575 1573 1573 1572 1570 1569 1568 1567 1566 1564 1563 1562 1560 1558 1555 1553 1551 1550 1548 1546 1544 1542 1540 1538
1530 1532 1533 1535 1536 1537 1539 1540 1542 1543 1544 1547 1549 1550 1552 1554 1556 1557 1559 1560 1561 1562 1564 1565 1567 1568 1570 1571 1572 1573 1574 1575 1576 1578 1579 1580 1580 1581 1581 1582 1583 1583 1584 1584 1585 1585 1585 1584 1584 1583 1583 1583 1582 1581 1581 1580 1578 1577 1576 1575 1574 1573 1572 1571 1570 1569 1568 1566 1565 1564 1563 1561 1560 1559 1557 1555 1553 1551 1549 1548 1546 1544 1542 1540 1538
1526 1528 1529 1530 1531 1532 1534 1536 1537 1538 1540 1542 1544 1545 1547 1550 1552 1553 1555 1556 1557 1558 1560 1562 1563 1564 1566 1567 1568 1569 1570 1571 1572 1573 1575 1576 1576 1577 1577 1578 1578 1579 1579 1580 1581 1581 1581 1581 1581 1580 1580 1580 1579 1579 1578 1577 1576 1575 1574 1572 1571 1570 1569 1568 1568 1567 1566 1564 1563 1562 1561 1559 1558 1557 1556 1554 1552 1550 1549 1547 1546 1544 1542 1540 1538
1522 1523 1524 1526 1527 1528 1530 1531 1532 1533 1534 1537 1539 1541 1543 1545 1547 1549 1551 1552 1554 1555 1556 1558 1559 1560 1562 1562 1564 1565 1565 1567 1568 1570 1571 1572 1572 1573 1573 1574 1574 1574 1575 1576 1576 1577 1577 1577 1577 1577 1577 1576 1576 1576 1575 1574 1573 1572 1570 1569 1569 1568 1567 1565 1565 1565 1564 1562 1561 1560 1559 1558 1557 1556 1554 1552 1550 1549 1548 1547 1545 1543 1541 1539 1537
1518 1520 1521 1522 1523 1524 1525 1526 1527 1528 1529 1532 1535 1537 1539 1541 1543 1545 1547 1548 1550 1551 1552 1554 1555 1556 1557 1558 1559 1561 1562 1563 1565 1566 1568 1568 1569 1569 1570 1570 1571 1570 1571 1572 1572 1572 1573 1573 1573 1573 1573 1573 1573 1572 1572 1571 1571 1570 1568 1567 1567 1566 1565 1563 1563 1562 1561 1560 1559 1559 1557 1556 1556 1555 1553 1551 1549 1548 1548 1546 1544 1543 1541 1538 1536
1514 1516 1517 1518 1519 1519 1520 1521 1523 1524 1525 1527 1530 1532 1535 1537 1539 1541 1543 1544 1545 1547 1548 1550 1551 1552 1553 1554 1555 1557 1558 1560 1561 1563 1564 1565 1566 1567 1568 1568 1568 1567 1568 1569 1569 1569 1569 1569 1569 1569 1569 1569 1569 1569 1568 1568 1567 1567 1565 1565 1564 1564 1562 1562 1561 1560 1559 1558 1557 1557 1556 1555 1554 1553 1552 1550 1549 1547 1546 1545 1543 1541 1540 1538 1536